TimeEST,TemperatureF,Dew PointF,Humidity,Sea Level PressureIn,VisibilityMPH,Wind Direction,Wind SpeedMPH,Gust SpeedMPH,PrecipitationIn,Events,Conditions,WindDirDegrees,DateUTC
12:14 AM,32.4,28.9,87,30.16,10.0,Calm,Calm,-,N/A,,Overcast,0,2012-12-09 05:14:00
12:35 AM,32.0,29.1,89,30.16,10.0,Calm,Calm,-,N/A,,Overcast,0,2012-12-09 05:35:00
12:54 AM,32.0,29.1,89,30.16,10.0,Calm,Calm,-,N/A,,Mostly Cloudy,0,2012-12-09 05:54:00
1:15 AM,32.0,29.1,89,30.16,10.0,Calm,Calm,-,N/A,,Overcast,0,2012-12-09 06:15:00
1:35 AM,32.0,29.3,90,30.16,10.0,NE,3.5,-,N/A,,Overcast,40,2012-12-09 06:35:00
1:54 AM,32.0,29.3,90,30.16,10.0,NE,4.6,-,N/A,,Overcast,50,2012-12-09 06:54:00
2:15 AM,32.0,29.7,91,30.15,10.0,East,5.8,-,N/A,,Overcast,80,2012-12-09 07:15:00
2:35 AM,32.2,29.3,89,30.16,10.0,ENE,3.5,-,N/A,,Overcast,60,2012-12-09 07:35:00
2:54 AM,32.2,29.3,89,30.15,10.0,ENE,5.8,-,N/A,,Overcast,60,2012-12-09 07:54:00
3:15 AM,32.2,29.1,88,30.15,10.0,NE,5.8,-,N/A,,Overcast,50,2012-12-09 08:15:00
3:35 AM,32.2,28.4,86,30.14,10.0,ENE,6.9,-,N/A,,Overcast,60,2012-12-09 08:35:00
3:54 AM,32.4,28.2,85,30.15,10.0,East,4.6,-,N/A,,Overcast,80,2012-12-09 08:54:00
4:15 AM,32.4,28.0,84,30.14,10.0,East,6.9,-,N/A,,Overcast,100,2012-12-09 09:15:00
4:34 AM,32.4,27.5,82,30.14,10.0,East,6.9,-,N/A,,Overcast,100,2012-12-09 09:34:00
4:55 AM,32.4,27.7,83,30.15,10.0,East,4.6,-,N/A,,Overcast,90,2012-12-09 09:55:00
5:15 AM,32.5,27.5,82,30.15,10.0,ENE,5.8,-,N/A,,Overcast,70,2012-12-09 10:15:00
5:34 AM,32.5,27.5,82,30.15,10.0,East,5.8,-,N/A,,Overcast,80,2012-12-09 10:34:00
5:55 AM,32.4,27.9,83,30.15,10.0,ENE,5.8,-,N/A,,Mostly Cloudy,70,2012-12-09 10:55:00
6:14 AM,32.4,28.0,84,30.15,10.0,East,6.9,-,N/A,,Scattered Clouds,80,2012-12-09 11:14:00
6:35 AM,32.4,28.0,84,30.14,10.0,East,6.9,-,N/A,,Scattered Clouds,80,2012-12-09 11:35:00
6:55 AM,32.2,28.2,85,30.13,10.0,East,6.9,-,N/A,,Mostly Cloudy,80,2012-12-09 11:55:00
7:14 AM,32.4,28.4,85,30.14,10.0,East,5.8,-,N/A,,Scattered Clouds,90,2012-12-09 12:14:00
7:35 AM,32.7,28.4,84,30.14,10.0,East,5.8,-,N/A,,Scattered Clouds,90,2012-12-09 12:35:00
7:55 AM,33.1,28.4,83,30.12,10.0,East,10.4,-,N/A,,Scattered Clouds,100,2012-12-09 12:55:00
8:14 AM,33.3,28.0,81,30.12,10.0,East,8.1,-,N/A,,Overcast,90,2012-12-09 13:14:00
8:35 AM,33.4,28.2,81,30.10,10.0,East,9.2,-,N/A,,Overcast,80,2012-12-09 13:35:00
8:55 AM,33.6,28.4,81,30.10,10.0,East,10.4,-,N/A,,Overcast,100,2012-12-09 13:55:00
9:14 AM,33.8,28.2,80,30.08,10.0,East,11.5,17.3,N/A,,Overcast,90,2012-12-09 14:14:00
9:35 AM,34.0,28.2,79,30.08,10.0,East,9.2,-,N/A,,Overcast,100,2012-12-09 14:35:00
9:55 AM,34.3,27.7,77,30.07,10.0,East,10.4,-,N/A,,Overcast,80,2012-12-09 14:55:00
10:14 AM,34.7,27.3,74,30.06,10.0,East,12.7,18.4,N/A,,Overcast,90,2012-12-09 15:14:00
10:35 AM,34.3,27.7,77,30.05,10.0,East,9.2,-,N/A,,Overcast,90,2012-12-09 15:35:00
10:54 AM,34.9,28.8,78,30.05,10.0,East,9.2,-,N/A,,Overcast,100,2012-12-09 15:54:00
11:14 AM,35.4,29.3,78,30.03,10.0,East,11.5,-,N/A,,Overcast,100,2012-12-09 16:14:00
11:35 AM,35.2,29.7,80,30.02,10.0,East,8.1,-,N/A,,Overcast,80,2012-12-09 16:35:00
11:54 AM,35.1,29.7,81,30.01,10.0,East,9.2,-,N/A,,Overcast,80,2012-12-09 16:54:00
12:14 PM,34.9,30.0,82,30.00,10.0,ENE,9.2,-,N/A,,Overcast,70,2012-12-09 17:14:00
12:35 PM,35.1,30.4,83,29.98,10.0,East,10.4,-,N/A,,Overcast,80,2012-12-09 17:35:00
1:15 PM,34.9,31.1,86,29.95,7.0,East,10.4,-,N/A,Rain,Light Rain,80,2012-12-09 18:15:00
1:35 PM,34.7,31.6,89,29.91,4.0,East,11.5,-,N/A,Rain,Light Rain,90,2012-12-09 18:35:00
1:54 PM,34.7,32.0,90,29.88,2.5,East,13.8,17.3,N/A,Rain,Light Rain,80,2012-12-09 18:54:00
2:15 PM,34.7,32.0,90,29.88,3.0,East,13.8,17.3,N/A,Rain,Light Rain,80,2012-12-09 19:15:00
2:35 PM,34.5,32.0,90,29.87,7.0,East,12.7,18.4,N/A,,Overcast,90,2012-12-09 19:35:00
2:54 PM,34.3,32.0,91,29.85,5.0,East,12.7,20.7,N/A,,Overcast,90,2012-12-09 19:54:00
3:15 PM,34.2,32.0,92,29.85,4.0,East,8.1,17.3,N/A,Rain,Light Rain,80,2012-12-09 20:15:00
3:35 PM,33.8,31.6,92,29.85,3.0,East,9.2,16.1,N/A,Rain,Light Rain,80,2012-12-09 20:35:00
3:54 PM,33.3,31.1,92,29.85,4.0,ENE,6.9,10.4,N/A,,Overcast,70,2012-12-09 20:54:00
4:15 PM,32.9,30.9,92,29.85,1.8,East,8.1,-,N/A,Snow,Light Snow,90,2012-12-09 21:15:00
4:34 PM,32.9,30.9,92,29.84,4.0,East,9.2,-,N/A,,Overcast,80,2012-12-09 21:34:00
4:54 PM,32.5,30.7,93,29.82,2.5,East,9.2,-,N/A,,Overcast,80,2012-12-09 21:54:00
5:15 PM,32.4,30.7,94,29.81,3.0,East,10.4,-,N/A,,Overcast,80,2012-12-09 22:15:00
5:34 PM,32.2,30.7,94,29.80,2.5,East,11.5,-,N/A,,Overcast,80,2012-12-09 22:34:00
5:54 PM,32.4,30.7,94,29.80,3.0,East,6.9,-,N/A,,Overcast,80,2012-12-09 22:54:00
6:15 PM,32.4,30.7,94,29.79,3.0,East,6.9,-,N/A,,Overcast,80,2012-12-09 23:15:00
6:34 PM,32.2,30.9,95,29.78,2.0,ENE,5.8,-,N/A,,Overcast,70,2012-12-09 23:34:00
6:54 PM,32.2,30.9,95,29.77,1.8,ENE,4.6,-,N/A,,Overcast,70,2012-12-09 23:54:00
7:14 PM,32.2,30.9,95,29.75,1.8,East,5.8,-,N/A,,Overcast,80,2012-12-10 00:14:00
7:34 PM,32.4,31.1,95,29.75,2.0,NE,4.6,-,N/A,,Overcast,50,2012-12-10 00:34:00
7:55 PM,32.2,30.9,95,29.74,2.0,NNE,3.5,-,N/A,,Overcast,30,2012-12-10 00:55:00
8:14 PM,32.2,30.9,95,29.71,1.5,ENE,5.8,-,N/A,,Overcast,60,2012-12-10 01:14:00
8:35 PM,32.2,31.1,96,29.73,1.8,Calm,Calm,-,N/A,,Overcast,0,2012-12-10 01:35:00
8:54 PM,32.2,31.1,96,29.71,1.5,NE,3.5,-,N/A,,Overcast,50,2012-12-10 01:54:00
9:14 PM,32.4,31.1,95,29.70,1.2,Calm,Calm,-,N/A,,Overcast,0,2012-12-10 02:14:00
9:35 PM,32.4,31.1,95,29.69,1.2,ENE,3.5,-,N/A,,Overcast,70,2012-12-10 02:35:00
9:54 PM,32.4,31.3,96,29.68,1.0,Calm,Calm,-,N/A,,Overcast,0,2012-12-10 02:54:00
10:14 PM,32.5,31.3,95,29.67,1.2,Calm,Calm,-,N/A,,Overcast,0,2012-12-10 03:14:00
10:35 PM,33.1,32.0,96,29.66,1.0,Calm,Calm,-,N/A,,Overcast,0,2012-12-10 03:35:00
10:54 PM,32.9,31.8,96,29.66,0.8,Calm,Calm,-,N/A,,Overcast,0,2012-12-10 03:54:00
11:15 PM,32.7,31.6,96,29.65,0.8,Calm,Calm,-,N/A,,Overcast,0,2012-12-10 04:15:00
11:34 PM,32.5,31.5,96,29.65,0.8,Calm,Calm,-,N/A,,Overcast,0,2012-12-10 04:34:00
11:55 PM,33.1,32.0,96,29.64,0.5,Calm,Calm,-,N/A,Fog,Fog,0,2012-12-10 04:55:00